Location: Napier
(39.4830°S, 176.9170°E)
Time: 04:37:30
(UTC+13:00)

Meteor 1-25 Rocket - Pass Details

Date: 24 January 2019
Orbit: 836 x 892 km, 81.2° (Epoch: 17 October)

Event Time Altitude Azimuth Distance (km) Brightness Sun altitude
Rises 23:12:12 0° 191° (S) 3,522 8.5 -23.7°
Reaches altitude 10° 23:14:40 10° 191° (S) 2,582 7.6 -23.9°
Maximum altitude 23:20:34 82° 277° (W) 913 4.3 -24.6°
Enters shadow 23:21:57 55° 356° (N) 1,074 4.4 -24.7°
